News / 

AP-UT--SLC-UT 2nd Weather Roundup, UT



Estimated read time: 1-2 minutes

This archived news story is available only for your personal, non-commercial use. Information in the story may be outdated or superseded by additional information. Reading or replaying the story in its archived form does not constitute a republication of the story.

AP-UT--SLC-UT 2nd Weather Roundup

764

ASUS45 KSLC 041210

RWRUT

UTAH REGIONAL WEATHER ROUNDUP

NATIONAL WEATHER SERVICE SALT LAKE CITY UT

500 AM MST TUE MAR 04 2014

UTZ001>011-023>025-041300-

NORTHERN UTAH

CITY SKY/WX TMP DP RH WIND PRES REMARKS

HILL AFB MOCLDY 46 28 49 N1 29.92S

LOGAN RAIN 45 37 73 SW10 29.93S

OGDEN CLOUDY 46 36 68 NW6 29.92F

PROVO AIRPORT PTCLDY 39 30 70 E5 29.94F

SALT LAKE CITY MOCLDY 46 37 71 SE6 29.92F

VERNAL CLOUDY 35 25 66 W5 29.96F WCI 31

WENDOVER CLOUDY 41 34 75 NE3 29.91F

WEST JORDAN CLOUDY 43 36 75 SW7 29.93F

$$

UTZ012>022-026-027-041300-

SOUTHERN UTAH

CITY SKY/WX TMP DP RH WIND PRES REMARKS

BRYCE CANYON PTCLDY 25 24 96 S5 30.05F WCI 19

CEDAR CITY MOCLDY 37 30 75 SE8 29.99S WCI 31

MILFORD MOCLDY 39 32 76 SW14 29.97F WCI 31

MOAB/CYNLANDS CLEAR 36 31 82 CALM 29.97F

PRICE PTCLDY 36 27 69 CALM 29.98F

ST GEORGE MOSUNNY 48 36 61 CALM 30.00F

$$

REGIONAL REPORTS COLORADO/ARIZONA

CITY SKY/WX TMP DP RH WIND PRES REMARKS

CRAIG, CO MOCLDY 29 26 89 CALM 29.98F

GRAND JUNCTION MOCLDY 39 28 64 SE13 30.00F WCI 31

RIFLE MOCLDY 31 27 85 CALM 30.03F

MONTROSE MOCLDY 37 23 56 SE14 30.05F WCI 28

CORTEZ CLEAR 24 23 96 CALM 30.08R

PAGE, AZ CLOUDY 45 33 63 CALM 29.99F

GRAND CANYON CLOUDY 31 29 92 CALM 30.06F

KINGMAN CLOUDY 48 40 73 S6 29.98F

FLAGSTAFF CLOUDY 34 31 88 CALM 30.07F

$$

REGIONAL REPORTS NEVADA/IDAHO/WYOMING

CITY SKY/WX TMP DP RH WIND PRES REMARKS

LAS VEGAS, NV CLOUDY 57 40 52 CALM 29.89F

ELY CLOUDY 37 30 75 S9 29.98F WCI 30

ELKO LGT RAIN 38 35 89 VRB7 29.97R WCI 33

POCATELLO, ID CLOUDY 42 37 82 SW16 29.93R

BURLEY CLOUDY 41 38 89 S14 29.93F

EVANSTON, WY CLOUDY 34 30 85 W7 29.95S WCI 28

ROCK SPRINGS CLOUDY 35 29 78 SW8 29.94S WCI 29

$$

Delivered by Weather Underground Inc. Tue Mar 4 2014 7:10AM EST

Copyright © The Associated Press. All rights reserved. This material may not be published, broadcast, rewritten or redistributed.

The Associated Press

    SIGN UP FOR THE KSL.COM NEWSLETTER

    Catch up on the top news and features from KSL.com, sent weekly.
    By subscribing, you acknowledge and agree to KSL.com's Terms of Use and Privacy Policy.

    KSL Weather Forecast